Temp
7 7 8 8 8 9 9 9 9 9 9 9 10 11 11 12 13 15 14 15 15 16 16 15 15 17 18 20 21 22 23 24 26 26 26 25 25 25 24 23 24 22 22 21 17
7 8 7 7 8 8 9 8 8 8 9 9 10 10 11 11 13 14 15 15 14 15 15 17 17 18 19 20 22 23 23 24 27 27 26 26 25 25 25 25 24 23 22 19 17
5 5 5 7 8 8 8 8 8 8 9 9 10 10 11 10 11 17 15 15 15 15 15 17 18 19 20 21 22 23 23 26 27 25 25 25 25 25 24 24 25 23 23 22 18
3 4 5 6 7 8 8 8 8 8 8 9 9 10 11 10 15 15 14 15 15 14 13 16 18 20 21 22 22 23 24 24 25 25 24 25 24 25 24 24 23 22 21 21 18
4 4 4 5 7 7 8 8 8 8 8 8 8 9 9 11 13 15 14 14 13 13 15 17 19 20 21 23 23 23 24 24 24 24 24 23 24 24 24 24 23 21 19 19 18
3 3 3 5 6 7 7 7 7 8 8 9 9 8 6 11 13 14 13 14 14 15 15 17 19 20 21 22 24 24 24 23 24 24 24 24 24 24 24 24 23 21 20 19 18
3 3 4 4 4 5 5 6 7 8 9 9 8 8 7 11 13 13 13 13 13 14 15 16 18 19 20 22 22 23 23 24 24 24 24 24 23 24 24 24 23 21 20 19 17
2 3 3 4 4 4 5 6 7 8 9 9 8 6 8 11 12 12 12 12 13 14 14 14 16 17 19 20 22 22 22 22 25 25 24 24 22 26 25 24 23 23 22 20 18
2 2 3 3 4 4 5 7 7 8 7 8 7 6 11 11 11 12 12 12 13 13 13 14 15 17 18 19 20 22 21 22 24 26 25 24 23 26 24 24 24 24 22 21 20
1 2 2 3 4 4 5 7 7 7 6 6 7 8 10 13 13 12 12 12 12 11 13 14 16 17 18 18 18 21 22 23 24 25 24 24 23 25 25 24 24 24 24 22 20
1 1 2 3 3 4 5 7 9 9 9 10 11 11 11 12 11 12 12 11 12 12 12 16 16 17 18 18 19 21 23 24 24 26 24 24 24 26 26 25 25 24 23 23 21
0 1 2 2 3 4 5 6 5 3 5 7 8 9 9 9 10 11 12 13 13 12 13 14 16 19 19 19 19 20 21 22 24 25 22 23 24 25 26 26 26 25 24 23 22
0 0 1 2 3 4 5 5 5 4 6 10 11 11 11 9 10 11 13 13 13 11 12 12 17 18 18 19 19 20 20 22 22 24 23 22 23 24 26 26 25 24 24 24 23
-0 0 1 2 3 4 6 5 5 4 7 14 14 13 11 9 11 11 12 13 13 11 11 14 16 17 17 17 19 19 22 22 22 22 21 24 22 24 25 26 26 25 24 24 23
-0 0 1 2 2 4 5 4 4 4 12 15 14 12 12 12 13 13 11 12 13 13 13 14 17 17 17 18 19 19 21 21 21 21 21 22 21 23 26 25 26 26 26 25 23
-0 0 1 2 2 3 4 3 5 7 12 14 14 14 15 15 14 13 13 12 12 10 12 13 15 17 18 19 19 20 20 20 20 21 19 21 21 23 25 25 26 26 26 25 23
-0 -0 0 1 3 3 3 4 9 11 15 14 14 14 15 15 16 14 13 12 12 9 10 12 13 16 18 17 18 19 19 18 18 18 18 22 22 22 25 26 25 25 25 25 24
-1 -0 0 1 2 2 3 8 9 13 14 14 14 14 15 16 16 15 14 12 13 14 13 13 12 15 18 17 18 19 19 18 17 18 20 23 21 23 26 26 25 25 24 25 23
-1 -0 1 2 2 2 3 7 11 13 14 12 13 14 15 15 15 15 15 14 14 14 14 15 16 18 18 17 17 19 18 20 19 18 19 22 22 24 25 25 25 25 25 25 24
-0 1 2 3 2 2 3 6 11 12 11 12 11 13 13 14 14 15 15 14 13 14 15 16 15 18 18 18 17 17 20 18 19 16 17 20 20 22 23 24 25 25 25 24 24
-0 0 4 3 2 2 4 7 10 10 10 10 11 12 12 12 13 14 12 13 12 13 14 15 15 16 18 17 17 16 18 18 19 19 17 18 20 24 23 24 24 24 24 24 23
0 1 3 2 2 4 4 7 8 10 10 10 11 11 11 11 11 13 13 13 11 12 13 15 15 14 14 18 19 18 18 19 17 16 19 18 19 23 21 22 23 24 24 23 23
-0 1 2 1 3 4 6 7 7 9 10 10 10 11 12 11 10 12 13 13 12 11 11 12 14 13 14 15 18 18 18 18 18 18 15 16 19 23 22 21 21 22 23 23 22
-1 1 3 1 3 5 6 6 7 8 9 10 11 11 11 10 11 11 12 13 12 12 10 10 13 14 14 16 18 17 18 18 18 16 17 17 19 20 21 21 21 20 20 21 21
-1 1 3 3 4 5 6 6 7 7 8 9 9 10 10 9 10 10 11 12 13 11 12 11 9 11 15 16 17 18 17 18 17 17 16 17 18 20 21 20 19 19 19 20 20
-1 1 2 4 5 6 6 4 6 8 9 8 8 9 10 10 10 9 11 12 12 12 11 12 9 8 12 14 15 15 16 18 18 18 18 19 19 21 20 20 20 19 18 18 18
-1 -0 0 3 5 5 5 6 7 8 8 8 9 9 9 9 9 8 8 9 9 9 10 11 11 9 8 13 13 12 15 16 17 18 18 17 19 18 19 20 19 18 16 16 15
Height
1526 1524 1522 1519 1517 1514 1511 1509 1507 1506 1504 1502 1500 1498 1495 1492 1489 1487 1486 1484 1481 1479 1478 1481 1482 1483 1485 1482 1483 1482 1477 1465 1452 1448 1449 1454 1461 1458 1462 1464 1463 1466 1466 1467 1468
1524 1522 1520 1517 1514 1511 1509 1507 1505 1503 1500 1499 1497 1494 1492 1489 1486 1479 1479 1478 1476 1475 1477 1477 1478 1480 1479 1475 1474 1476 1469 1458 1444 1444 1448 1451 1455 1455 1458 1457 1455 1459 1462 1465 1466
1522 1519 1518 1514 1512 1509 1507 1505 1502 1500 1498 1496 1494 1491 1489 1488 1485 1474 1474 1473 1470 1468 1474 1478 1476 1476 1473 1470 1466 1465 1464 1451 1445 1452 1451 1452 1451 1454 1456 1456 1452 1456 1456 1459 1464
1521 1518 1515 1512 1509 1506 1504 1502 1499 1497 1495 1493 1491 1488 1487 1488 1483 1473 1472 1470 1466 1465 1471 1474 1473 1469 1467 1463 1461 1460 1457 1455 1451 1451 1455 1454 1453 1451 1452 1453 1454 1457 1458 1458 1462
1518 1516 1513 1509 1506 1502 1501 1499 1497 1495 1491 1489 1487 1484 1484 1486 1473 1473 1470 1470 1468 1465 1472 1470 1468 1466 1461 1458 1456 1453 1453 1451 1451 1451 1451 1454 1451 1451 1449 1449 1450 1455 1456 1457 1459
1514 1513 1512 1507 1503 1500 1498 1496 1494 1491 1487 1483 1483 1481 1485 1477 1466 1469 1468 1468 1467 1465 1471 1468 1466 1463 1458 1454 1449 1449 1449 1450 1447 1447 1448 1450 1447 1447 1443 1445 1446 1451 1452 1455 1456
1511 1510 1507 1504 1503 1498 1496 1493 1490 1487 1482 1479 1478 1476 1478 1461 1466 1466 1464 1463 1463 1464 1468 1466 1465 1462 1457 1452 1451 1448 1447 1445 1442 1441 1441 1444 1442 1440 1439 1440 1443 1446 1448 1450 1454
1510 1507 1504 1502 1501 1496 1492 1489 1485 1481 1477 1474 1474 1473 1467 1461 1461 1459 1461 1459 1460 1459 1465 1467 1465 1463 1459 1454 1448 1447 1445 1445 1433 1435 1437 1441 1440 1428 1426 1434 1439 1440 1443 1446 1449
1507 1505 1503 1500 1497 1494 1489 1485 1480 1476 1473 1471 1471 1470 1462 1457 1456 1453 1456 1457 1457 1458 1463 1466 1464 1461 1459 1455 1449 1441 1440 1437 1431 1422 1427 1435 1433 1422 1427 1431 1433 1434 1438 1441 1445
1507 1503 1501 1498 1493 1491 1487 1481 1478 1473 1471 1472 1469 1472 1460 1457 1455 1454 1453 1455 1454 1455 1463 1463 1460 1455 1453 1450 1451 1437 1434 1429 1422 1416 1425 1426 1429 1422 1423 1429 1429 1429 1430 1436 1441
1504 1502 1499 1496 1492 1490 1486 1481 1478 1473 1473 1470 1462 1456 1455 1456 1454 1453 1453 1454 1454 1457 1463 1453 1453 1443 1443 1445 1443 1433 1420 1419 1415 1411 1422 1424 1422 1415 1414 1416 1422 1425 1427 1429 1434
1502 1499 1497 1495 1492 1489 1489 1487 1487 1487 1473 1461 1456 1454 1450 1455 1455 1451 1452 1453 1453 1453 1459 1456 1440 1435 1438 1441 1443 1437 1429 1425 1418 1414 1427 1424 1418 1413 1411 1411 1412 1416 1420 1424 1428
1499 1498 1495 1493 1492 1488 1490 1489 1487 1487 1479 1452 1450 1448 1448 1449 1449 1448 1450 1448 1449 1457 1453 1454 1433 1434 1436 1437 1439 1430 1430 1426 1425 1413 1422 1425 1421 1412 1406 1408 1408 1413 1416 1417 1422
1497 1495 1494 1491 1494 1489 1488 1487 1488 1488 1473 1440 1443 1444 1446 1446 1447 1445 1446 1448 1449 1451 1454 1443 1436 1434 1436 1436 1434 1429 1421 1423 1423 1425 1427 1410 1422 1402 1397 1398 1400 1405 1409 1413 1416
1494 1492 1491 1489 1490 1489 1489 1487 1487 1487 1448 1438 1441 1444 1444 1443 1441 1439 1443 1446 1443 1446 1449 1437 1427 1430 1433 1431 1431 1427 1420 1420 1424 1424 1422 1419 1422 1404 1390 1392 1393 1396 1398 1403 1412
1490 1490 1488 1491 1489 1487 1487 1486 1487 1479 1441 1435 1437 1437 1435 1431 1435 1438 1440 1445 1447 1455 1452 1442 1433 1428 1426 1425 1428 1422 1423 1423 1423 1421 1428 1418 1419 1404 1387 1389 1389 1392 1391 1397 1406
1488 1487 1487 1487 1488 1487 1486 1484 1471 1451 1433 1433 1436 1435 1432 1426 1424 1431 1436 1440 1440 1452 1448 1442 1436 1428 1423 1425 1427 1423 1423 1431 1433 1426 1425 1405 1405 1401 1384 1384 1388 1390 1391 1395 1401
1483 1484 1484 1486 1484 1487 1486 1479 1463 1434 1432 1432 1436 1432 1428 1424 1420 1424 1430 1435 1437 1429 1431 1433 1438 1428 1418 1420 1418 1415 1416 1419 1429 1420 1407 1394 1407 1391 1380 1385 1389 1390 1392 1393 1399
1480 1481 1480 1481 1482 1483 1484 1465 1441 1435 1434 1439 1435 1428 1423 1424 1426 1420 1422 1421 1423 1429 1428 1417 1412 1408 1411 1417 1418 1410 1413 1412 1414 1416 1411 1393 1394 1384 1383 1385 1385 1388 1389 1391 1393
1480 1478 1476 1476 1478 1479 1479 1461 1444 1446 1446 1443 1438 1430 1429 1427 1424 1416 1416 1424 1425 1425 1421 1414 1417 1404 1407 1414 1417 1412 1403 1416 1410 1428 1427 1401 1401 1389 1385 1385 1382 1387 1388 1390 1390
1478 1475 1469 1470 1473 1474 1464 1455 1448 1448 1448 1445 1437 1436 1433 1433 1431 1422 1429 1429 1429 1426 1423 1415 1414 1408 1401 1406 1408 1414 1407 1405 1403 1407 1416 1416 1397 1378 1383 1385 1385 1386 1389 1389 1390
1475 1471 1464 1465 1469 1462 1459 1455 1452 1446 1447 1446 1444 1441 1439 1437 1434 1428 1424 1426 1433 1432 1421 1415 1414 1412 1415 1395 1395 1398 1402 1399 1407 1419 1401 1406 1401 1385 1391 1391 1392 1391 1390 1390 1391
1469 1465 1462 1462 1457 1454 1454 1452 1452 1447 1444 1441 1440 1440 1438 1437 1438 1427 1425 1428 1432 1434 1432 1426 1413 1415 1410 1412 1396 1394 1394 1399 1401 1405 1420 1417 1403 1385 1389 1394 1396 1393 1393 1393 1394
1466 1458 1457 1457 1453 1448 1446 1448 1442 1445 1443 1439 1437 1438 1435 1437 1435 1432 1429 1427 1431 1433 1435 1432 1417 1405 1404 1396 1389 1396 1390 1394 1397 1408 1404 1406 1398 1391 1389 1393 1396 1399 1402 1400 1398
1460 1451 1447 1446 1446 1447 1445 1441 1437 1437 1440 1439 1438 1437 1435 1435 1433 1434 1431 1427 1428 1429 1429 1429 1428 1420 1398 1395 1393 1382 1392 1394 1401 1404 1408 1403 1398 1389 1388 1392 1399 1402 1401 1399 1399
1451 1450 1447 1443 1439 1438 1439 1442 1437 1434 1432 1435 1438 1435 1432 1432 1432 1434 1429 1427 1426 1425 1430 1425 1430 1432 1411 1402 1398 1396 1393 1387 1390 1390 1391 1391 1391 1387 1391 1395 1398 1402 1402 1402 1403
1446 1448 1449 1440 1436 1435 1434 1436 1434 1433 1431 1432 1434 1432 1431 1434 1435 1439 1437 1435 1437 1434 1431 1428 1425 1430 1427 1410 1407 1411 1397 1394 1395 1390 1390 1395 1390 1393 1394 1395 1399 1402 1405 1406 1405
Wind_Speed
15 16 18 19 19 20 21 23 22 21 20 22 22 21 23 25 27 24 22 21 18 17 18 11 19 20 19 21 23 16 15 16 21 13 12 8 10 15 7 13 11 10 12 7 3
15 16 16 17 17 19 20 21 22 22 23 23 23 22 22 24 27 27 19 21 26 26 18 21 23 23 25 22 25 17 15 22 17 9 9 6 10 10 9 14 16 15 11 9 6
13 14 15 17 18 19 20 21 21 22 23 23 23 22 21 21 22 5 5 15 18 17 23 22 22 23 24 22 26 23 21 21 13 9 13 13 11 11 10 12 11 12 11 6 8
15 16 17 17 18 19 21 22 23 22 23 23 24 23 20 16 8 4 17 19 12 9 16 20 25 28 22 24 24 21 25 25 23 12 16 15 17 13 13 15 13 9 8 6 9
15 17 17 18 19 20 21 23 23 21 23 23 23 23 21 12 27 25 23 11 8 2 14 20 26 26 23 22 23 21 22 25 19 19 16 18 18 17 20 18 12 8 8 8 9
14 16 19 20 21 22 23 24 23 22 23 23 23 21 13 22 21 18 15 8 0 1 13 18 20 22 23 26 20 23 20 24 25 19 21 18 20 23 17 13 8 10 11 10 10
15 17 18 20 23 24 25 25 24 23 23 23 22 17 16 36 15 13 17 17 11 6 14 16 18 16 21 18 22 21 21 17 20 22 20 19 20 21 24 17 10 11 12 11 11
17 17 18 20 23 24 25 25 23 22 21 19 16 8 14 17 18 22 23 18 18 11 13 17 16 19 22 18 15 16 20 18 19 19 20 17 20 17 19 12 13 13 13 13 13
18 18 18 20 23 24 25 23 19 18 16 13 4 8 16 9 11 13 20 20 17 13 17 17 17 20 19 16 15 18 16 22 20 17 14 14 18 18 7 9 13 13 14 14 14
20 19 19 20 22 22 24 17 13 12 9 5 7 6 12 11 6 5 6 13 11 12 18 19 16 16 15 14 16 17 18 19 18 14 15 17 19 18 12 13 13 14 13 14 15
21 22 20 20 20 18 21 21 5 5 8 16 16 17 22 9 11 9 8 6 12 18 17 19 15 21 22 20 21 24 19 16 12 12 11 15 19 15 17 17 13 15 14 15 17
21 20 18 19 17 11 14 9 7 8 16 18 22 24 27 23 14 11 8 14 9 15 16 17 22 20 21 19 21 26 24 16 15 5 5 15 19 18 16 17 11 15 14 14 15
18 18 15 16 14 6 9 6 9 12 9 12 7 7 6 9 20 15 13 17 7 12 18 19 16 22 18 18 22 24 23 19 18 9 8 14 19 18 17 18 16 12 15 13 15
18 15 14 12 8 7 5 8 9 11 5 6 3 2 1 2 6 23 13 13 10 12 17 17 27 8 17 21 20 22 18 19 17 15 13 11 14 15 19 22 16 21 19 18 14
19 14 12 9 9 6 8 10 10 5 5 5 5 0 1 7 8 1 26 12 14 12 4 14 12 18 20 18 20 24 16 15 16 18 17 18 10 14 14 14 15 14 21 22 17
15 13 10 7 8 8 10 11 6 5 5 5 2 3 7 9 7 2 8 23 9 10 20 21 29 16 16 19 19 15 15 16 11 14 15 17 14 13 11 14 14 4 11 17 17
13 14 12 9 9 6 9 7 6 7 6 4 1 5 11 9 5 9 8 17 12 8 17 21 22 24 13 15 22 19 12 9 11 12 15 16 14 15 10 0 6 8 8 11 12
15 16 13 12 11 8 6 6 10 3 3 2 4 12 10 7 2 8 8 10 19 20 8 16 14 23 15 15 16 19 18 10 12 10 13 18 8 7 8 2 1 2 5 8 14
16 14 14 13 12 11 9 10 5 7 4 4 10 11 6 2 5 3 10 3 9 18 16 10 20 12 20 14 15 17 20 21 18 10 7 6 10 14 6 8 7 9 10 11 17
12 13 17 13 13 14 8 14 11 5 4 5 7 2 5 3 7 6 9 7 4 5 14 16 17 14 17 15 20 21 10 17 13 11 11 9 13 4 7 5 3 2 3 4 11
11 6 7 14 17 13 9 15 11 8 6 6 8 7 10 8 6 7 3 4 9 9 11 15 9 6 11 17 19 17 17 12 15 14 9 13 9 7 2 3 4 5 9 7 1
13 4 9 16 14 11 11 13 8 11 13 13 8 11 11 11 11 8 4 6 9 14 11 16 6 12 15 19 22 22 20 18 9 5 13 9 5 3 9 7 9 5 7 10 5
11 14 9 16 8 11 13 19 21 13 14 10 13 13 14 11 7 10 7 3 5 12 10 11 10 10 14 10 8 13 19 19 17 14 13 7 8 12 7 4 11 13 13 11 10
8 5 18 15 18 12 16 15 17 16 18 17 12 13 14 14 14 10 11 2 6 6 13 7 11 13 13 13 10 13 11 10 11 9 14 14 13 10 10 5 6 13 14 13 12
16 7 8 7 15 17 15 7 20 17 16 19 14 18 14 15 15 17 18 14 14 3 8 3 5 12 9 3 9 7 15 14 13 15 11 13 12 12 8 3 6 11 16 15 13
10 8 13 18 15 18 19 17 18 15 17 17 16 17 18 19 16 15 12 12 10 4 6 5 3 6 9 4 4 5 8 10 11 13 13 14 12 11 2 4 3 9 14 14 16
24 15 10 9 15 11 13 19 18 17 15 21 15 16 13 12 10 11 17 16 12 13 8 9 8 4 3 7 2 5 13 11 11 13 13 13 7 9 4 4 5 7 12 15 17
Wind_Direction
310 311 310 314 315 318 320 321 321 321 319 317 316 311 312 317 315 310 287 273 262 260 236 228 206 212 214 222 224 237 258 254 260 241 255 161 237 244 247 277 255 246 271 321 221
302 307 313 319 323 322 322 323 320 322 322 321 317 315 313 313 314 300 279 268 272 257 234 208 209 210 214 218 220 229 240 247 272 305 247 211 234 274 247 259 237 237 253 257 254
318 318 319 317 318 320 318 319 323 322 319 315 314 313 316 319 319 290 260 320 327 252 230 222 221 216 223 222 217 220 241 261 283 269 273 259 258 261 256 264 288 335 307 241 242
321 321 319 319 319 317 316 316 318 321 316 314 310 309 311 316 279 310 306 328 313 269 221 223 223 223 228 231 226 230 245 249 268 271 245 252 260 274 259 271 287 284 281 252 234
319 321 321 319 317 315 313 313 314 314 309 308 307 309 315 283 256 269 288 348 355 242 217 228 223 227 227 234 235 231 241 257 247 255 250 257 262 263 270 275 260 253 253 239 232
321 318 319 319 318 314 314 314 315 313 304 303 302 302 294 269 288 262 251 245 326 292 251 229 229 230 239 242 247 241 243 255 257 249 244 242 254 259 259 257 257 238 240 235 225
304 308 312 318 317 317 315 314 316 310 303 299 296 294 266 255 277 261 270 259 264 282 263 245 242 251 240 261 259 253 258 257 244 247 248 244 255 252 259 252 237 225 228 218 221
302 304 308 311 313 316 316 316 314 307 300 295 293 259 259 271 276 261 249 254 238 243 260 256 257 256 256 265 251 245 242 249 243 228 238 238 259 267 237 184 226 224 219 218 219
303 306 302 306 313 319 321 322 315 305 299 300 311 215 267 289 276 278 247 241 227 218 270 252 247 244 234 241 249 234 237 229 247 248 224 209 255 246 155 207 244 234 224 217 219
301 302 304 308 315 325 326 335 328 320 325 288 250 233 255 291 314 285 227 225 222 193 263 240 234 237 228 231 231 235 218 246 258 205 207 231 239 264 204 224 240 245 220 219 220
295 299 302 308 318 333 345 341 325 238 269 276 278 257 286 303 313 269 212 176 190 179 237 230 223 227 226 221 251 267 262 261 245 243 210 238 252 242 248 205 227 226 230 221 219
299 300 300 306 320 339 358 9 16 324 299 287 271 267 267 261 274 277 223 209 191 209 209 264 229 232 237 242 238 249 258 258 267 230 221 261 262 248 244 260 232 235 217 226 216
295 299 300 306 325 15 336 343 340 323 273 305 258 274 292 231 234 245 227 231 203 201 234 233 245 226 246 232 238 239 244 247 258 259 211 259 267 260 249 249 245 234 252 231 218
295 293 298 308 321 326 321 332 313 323 279 141 162 121 215 150 224 234 230 223 191 231 221 250 234 158 229 236 237 242 232 250 260 256 257 266 267 261 230 232 214 227 226 233 218
295 286 294 299 286 310 306 308 310 294 284 103 119 89 163 237 326 219 208 219 222 224 241 245 224 238 225 234 226 253 257 256 237 254 260 259 258 269 264 240 231 245 231 211 219
287 284 284 323 280 279 288 302 290 233 231 144 146 315 275 252 227 131 180 215 216 236 270 269 286 281 247 232 257 265 223 256 239 246 244 244 253 268 256 203 219 234 235 217 201
273 278 268 259 258 283 304 292 240 244 126 112 66 313 304 282 253 193 189 197 204 195 232 250 268 267 234 225 235 232 208 212 217 223 236 237 233 235 269 231 271 258 233 189 212
269 273 272 258 250 259 265 235 245 4 235 27 291 301 279 334 169 188 205 204 231 240 245 230 236 244 223 244 223 212 213 218 219 226 229 216 228 260 197 236 239 261 233 243 180
283 277 264 250 237 228 238 223 244 268 358 310 299 268 252 244 293 246 219 297 213 225 232 286 233 219 222 208 261 220 219 236 268 247 274 162 219 271 206 230 222 223 234 229 225
275 271 257 231 216 211 221 234 256 252 301 260 265 272 284 5 297 293 199 72 1 302 277 252 269 258 195 207 229 252 235 219 227 238 236 231 205 233 151 201 140 263 8 320 275
259 258 243 201 197 209 223 222 249 239 225 249 259 262 278 296 308 302 108 154 29 340 301 262 266 228 256 204 209 230 233 237 233 225 239 234 249 239 205 68 46 38 11 338 325
233 224 200 177 194 212 226 227 290 259 226 250 262 270 272 287 290 278 278 331 26 335 313 222 257 246 242 222 222 205 226 230 226 236 236 247 248 167 73 29 341 289 358 23 35
229 236 241 189 214 221 234 229 249 251 242 237 233 245 262 270 277 246 271 65 40 325 355 353 225 244 207 260 207 238 219 216 234 235 220 246 232 208 97 49 326 343 357 354 354
245 224 219 212 233 263 229 231 236 223 251 244 252 250 249 249 257 270 261 283 320 315 315 297 266 255 236 243 242 205 207 214 239 229 235 225 252 261 264 277 327 348 327 321 325
219 241 220 206 225 228 245 248 226 230 227 240 233 246 245 247 253 254 262 270 280 193 288 288 296 321 279 284 278 221 207 223 231 236 248 246 257 262 268 35 348 322 323 325 336
204 225 237 255 242 222 225 244 252 247 220 222 233 233 234 246 253 256 267 269 273 274 303 203 284 290 238 193 263 223 251 243 232 240 244 242 246 235 22 309 328 349 342 350 347
219 234 262 249 247 233 224 221 242 246 249 242 226 246 255 259 292 271 277 285 268 277 295 289 241 212 290 292 266 262 232 229 245 249 249 249 288 50 249 329 12 7 10 358 356